User: anonymous   Login
Location: Deuil
(48.9767°N, 2.3272°E)
Time: 05:11:52
(UTC+00:00)
Language:

SL-8 R/B - Orbit

View from above orbital plane
View from above orbital plane
View from above satellite
View from above satellite

Ground track
Ground track

The orbit data is extracted from the following two-line orbital elements,

1 33066U 08031G   22021.51435052 -.00000011  00000-0  30794-4 0  9992
2 33066  48.4424 173.7665 0007437  12.4135 347.6958 14.69817276729683
Epoch (UTC): 21 January 2022 12:20:39
Eccentricity: 0.0007437
inclination: 48.4424°
perigee height: 656 km
apogee height: 667 km
right ascension of ascending node: 173.7665°
argument of perigee: 12.4135°
revolutions per day: 14.69817276
mean anomaly at epoch: 347.6958°
orbit number at epoch: 72968

The dashed part of the orbit path shows where the satellite is in the earth's shadow,  

DLR